Weather History for Manistique, MI

Change the Weather History Date:

Friday, December 23, 2011

  Actual Average Record
Temperature  
Mean Temperature 18 °F -  
Max Temperature 26 °F 27 °F 46 °F (1957)
Min Temperature 10 °F 15 °F -15 °F (1983)
Degree Days  
Heating Degree Days 47    
Moisture  
Dew Point 15 °F    
Average Humidity 80    
Maximum Humidity 93    
Minimum Humidity 59    
Precipitation  
Precipitation 0.00 in - - ()
Sea Level Pressure  
Sea Level Pressure 30.20 in    
Wind  
Wind Speed 4 mph (West)    
Max Wind Speed 10 mph    
Max Gust Speed 16 mph    
Visibility 8 miles    
Events Snow    
Averages and records for this station are not official NWS values.
T = Trace of Precipitation, MM = Missing Value Source: NWS Daily Summary

Daily Weather History Graph

Daily Weather History Graph

Search for Another Location

Airport:

Trip Planner

Search our weather history database for the weather conditions in past years. The results will help you decide how hot, cold, wet, or windy it might be!

Date:

Astronomy

Dec. 23, 2011 Rise Set
Actual Time 8:24 AM EST 5:03 PM EST
Civil Twilight 7:49 AM EST 5:37 PM EST
Nautical Twilight 7:11 AM EST 6:15 PM EST
Astronomical Twilight 6:35 AM EST 6:52 PM EST
Moon 7:13 AM EST (12/23) 4:10 PM EST (12/23)
Length of Visible Light 9h 48m
Length of Day
8h 38m
Waning Crescent, 1% of the Moon is Illuminated
Dec 23
Waning Crescent
Dec 24
New
Jan 1
First Quarter
Jan 9
Full
Jan 16
Last Quarter

Hourly Weather History & Observations

Time (EST) Temp. Windchill Dew Point Humidity Pressure Visibility Wind Dir Wind Speed Gust Speed Precip Events Conditions
12:15 AM 23.0 °F - 19.4 °F 86% 30.22 in 3.0 mi Calm Calm - N/A Snow Light Snow
12:34 AM 23.0 °F 18.4 °F 19.4 °F 86% 30.22 in 5.0 mi West 3.5 mph - N/A Snow Light Snow
1:15 AM 23.0 °F 13.9 °F 17.6 °F 80% 30.23 in 10.0 mi WNW 8.1 mph - N/A   Overcast
1:34 AM 21.2 °F 11.7 °F 17.6 °F 86% 30.23 in 10.0 mi West 8.1 mph - N/A   Overcast
1:54 AM 21.2 °F 10.9 °F 15.8 °F 80% 30.23 in 10.0 mi WNW 9.2 mph - N/A   Overcast
2:15 AM 21.2 °F 10.1 °F 14.0 °F 74% 30.23 in 10.0 mi WNW 10.4 mph - N/A   Overcast
2:34 AM 19.4 °F 9.5 °F 14.0 °F 80% 30.23 in 10.0 mi WNW 8.1 mph - N/A   Overcast
2:55 AM 19.4 °F 10.4 °F 12.2 °F 74% 30.24 in 10.0 mi WNW 6.9 mph - N/A   Overcast
3:34 AM 17.6 °F 9.3 °F 12.2 °F 79% 30.24 in 10.0 mi NW 5.8 mph - N/A   Scattered Clouds
3:55 AM 15.8 °F 7.2 °F 10.4 °F 79% 30.24 in 10.0 mi NW 5.8 mph - N/A   Clear
4:14 AM 14.0 °F 5.1 °F 10.4 °F 86% 30.24 in 10.0 mi WNW 5.8 mph - N/A   Clear
4:35 AM 14.0 °F 5.1 °F 10.4 °F 86% 30.24 in 10.0 mi WNW 5.8 mph - N/A   Clear
4:55 AM 14.0 °F 3.9 °F 10.4 °F 86% 30.24 in 10.0 mi WNW 6.9 mph - N/A   Clear
5:14 AM 14.0 °F 5.1 °F 10.4 °F 86% 30.24 in 10.0 mi WNW 5.8 mph - N/A   Clear
5:35 AM 15.8 °F 7.2 °F 12.2 °F 86% 30.24 in 10.0 mi NW 5.8 mph - N/A   Clear
5:55 AM 15.8 °F 8.6 °F 10.4 °F 79% 30.24 in 10.0 mi NW 4.6 mph - N/A   Clear
6:14 AM 12.2 °F 4.3 °F 8.6 °F 85% 30.24 in 10.0 mi NW 4.6 mph - N/A   Clear
6:35 AM 10.4 °F 2.2 °F 6.8 °F 85% 30.24 in 10.0 mi WNW 4.6 mph - N/A   Clear
6:54 AM 10.4 °F 4.0 °F 6.8 °F 85% 30.24 in 10.0 mi WNW 3.5 mph - N/A   Clear
7:14 AM 12.2 °F 6.1 °F 10.4 °F 92% 30.25 in 10.0 mi WNW 3.5 mph - N/A   Mostly Cloudy
7:35 AM 15.8 °F 8.6 °F 10.4 °F 79% 30.24 in 10.0 mi WNW 4.6 mph - N/A   Overcast
7:54 AM 15.8 °F 7.2 °F 12.2 °F 86% 30.24 in 10.0 mi WNW 5.8 mph - N/A   Overcast
8:54 AM 17.6 °F - 10.4 °F 73% 30.24 in 10.0 mi Calm Calm - N/A   Overcast
9:15 AM 17.6 °F 12.3 °F 10.4 °F 73% 30.24 in 10.0 mi NW 3.5 mph - N/A   Overcast
9:34 AM 17.6 °F 12.3 °F 10.4 °F 73% 30.24 in 10.0 mi WNW 3.5 mph - N/A   Mostly Cloudy
9:54 AM 17.6 °F - 12.2 °F 79% 30.24 in 10.0 mi Calm Calm - N/A   Scattered Clouds
10:14 AM 19.4 °F - 10.4 °F 68% 30.24 in 10.0 mi Calm Calm - N/A   Clear
10:34 AM 19.4 °F - 12.2 °F 74% 30.23 in 10.0 mi Calm Calm - N/A   Clear
10:55 AM 21.2 °F - 12.2 °F 68% 30.23 in 10.0 mi Calm Calm - N/A   Clear
11:14 AM 23.0 °F - 12.2 °F 63% 30.22 in 10.0 mi Calm Calm - N/A   Clear
11:34 AM 24.8 °F 20.5 °F 12.2 °F 59% 30.22 in 10.0 mi SSE 3.5 mph - N/A   Clear
11:55 AM 24.8 °F 20.5 °F 14.0 °F 64% 30.21 in 10.0 mi SE 3.5 mph - N/A   Clear
12:55 PM 26.6 °F 22.6 °F 15.8 °F 64% 30.19 in 10.0 mi South 3.5 mph - N/A   Mostly Cloudy
1:14 PM 26.6 °F 22.6 °F 17.6 °F 69% 30.18 in 10.0 mi SSW 3.5 mph - N/A   Overcast
1:55 PM 26.6 °F 20.0 °F 17.6 °F 69% 30.17 in 10.0 mi SSW 5.8 mph - N/A   Overcast
2:14 PM 26.6 °F 20.0 °F 17.6 °F 69% 30.17 in 10.0 mi SW 5.8 mph - N/A   Overcast
2:34 PM 26.6 °F 18.2 °F 19.4 °F 74% 30.16 in 2.0 mi South 8.1 mph - N/A Snow Light Snow
2:54 PM 26.6 °F 20.0 °F 19.4 °F 74% 30.16 in 10.0 mi SW 5.8 mph - N/A Snow Light Snow
3:14 PM 26.6 °F 17.5 °F 19.4 °F 74% 30.16 in 4.0 mi SW 9.2 mph 16.1 mph N/A Snow Light Snow
3:35 PM 26.6 °F 21.2 °F 19.4 °F 74% 30.16 in 3.0 mi SW 4.6 mph - N/A Snow Light Snow
3:54 PM 24.8 °F 16.9 °F 19.4 °F 80% 30.16 in 2.0 mi WSW 6.9 mph - N/A Snow Light Snow
4:15 PM 24.8 °F - 21.2 °F 86% 30.16 in 1.2 mi Calm Calm - N/A Snow Light Snow
4:34 PM 24.8 °F - 21.2 °F 86% 30.15 in 1.5 mi Calm Calm - N/A Snow Light Snow
4:54 PM 24.8 °F - 21.2 °F 86% 30.15 in 1.2 mi Calm Calm - N/A Snow Light Snow
5:15 PM 24.8 °F - 21.2 °F 86% 30.15 in 1.5 mi Calm Calm - N/A Snow Light Snow
5:34 PM 24.8 °F - 21.2 °F 86% 30.15 in 1.8 mi Calm Calm - N/A Snow Light Snow
5:55 PM 24.8 °F - 21.2 °F 86% 30.15 in 3.0 mi Calm Calm - N/A Snow Light Snow
6:15 PM 24.8 °F - 21.2 °F 86% 30.14 in 4.0 mi Calm Calm - N/A Snow Light Snow
6:34 PM 23.0 °F - 19.4 °F 86% 30.14 in 4.0 mi Calm Calm - N/A Snow Light Snow
7:14 PM 24.8 °F - 21.2 °F 86% 30.14 in 2.5 mi Calm Calm - N/A Snow Light Snow
7:34 PM 24.8 °F - 21.2 °F 86% 30.14 in 3.0 mi Calm Calm - N/A Snow Light Snow
8:14 PM 24.8 °F - 21.2 °F 86% 30.14 in 4.0 mi Calm Calm - N/A Snow Light Snow
8:34 PM 24.8 °F - 21.2 °F 86% 30.15 in 3.0 mi Calm Calm - N/A Snow Light Snow
8:55 PM 23.0 °F - 19.4 °F 86% 30.14 in 10.0 mi Calm Calm - N/A Snow Light Snow
9:34 PM 21.2 °F - 17.6 °F 86% 30.14 in 10.0 mi Calm Calm - N/A   Overcast
9:55 PM 19.4 °F - 17.6 °F 93% 30.14 in 10.0 mi Calm Calm - N/A   Overcast
10:14 PM 19.4 °F - 17.6 °F 93% 30.13 in 3.0 mi Calm Calm - N/A Snow Light Snow
10:35 PM 21.2 °F - 19.4 °F 93% 30.13 in 1.2 mi Calm Calm - N/A Snow Light Snow
10:55 PM 21.2 °F - 19.4 °F 93% 30.14 in 2.0 mi Calm Calm - N/A Snow Light Snow
11:14 PM 21.2 °F - 17.6 °F 86% 30.14 in 10.0 mi Calm Calm - N/A Snow Light Snow
11:35 PM 19.4 °F - 15.8 °F 86% 30.15 in 10.0 mi Calm Calm - N/A   Mostly Cloudy
11:54 PM 17.6 °F - 15.8 °F 93% 30.15 in 10.0 mi Calm Calm - N/A   Scattered Clouds